"read_dt","SO2 (ppb)","flags","PMT voltage (V)","lamp voltage (V)","lamp intensity (Hz)","internal temp (C)","react chamber temp (C)","sample flow (l/min)","pres (mmHg)","SO2 bkg (ppb)","SO2 coefficient"
2014-04-01 00:00:00,3758E-2,5C000410,-0724,1060,10040,018.9,045.0,0.171,769.4,01.15,0.508
2014-04-01 00:01:00,3767E-2,5C000400,-0724,1059,10021,018.9,045.0,0.171,769.4,01.15,0.508
2014-04-01 00:02:00,3740E-2,5C000400,-0724,1061,9873,018.9,045.0,0.171,769.4,01.15,0.508
2014-04-01 00:03:00,3758E-2,5C000410,-0724,1060,9780,018.9,045.0,0.171,769.3,01.15,0.508
2014-04-01 00:04:00,3784E-2,5C000410,-0724,1061,9960,018.9,045.0,0.171,769.3,01.15,0.508
2014-04-01 00:05:00,3816E-2,5C000410,-0724,1062,9976,018.9,045.0,0.171,769.4,01.15,0.508
2014-04-01 00:06:00,3800E-2,5C000410,-0724,1059,9873,018.9,045.0,0.171,769.3,01.15,0.508
2014-04-01 00:07:00,3863E-2,5C000410,-0724,1060,9852,019.0,045.0,0.171,769.3,01.15,0.508
2014-04-01 00:08:00,3861E-2,5C000400,-0724,1062,10059,019.0,045.0,0.171,769.3,01.15,0.508
2014-04-01 00:09:00,3828E-2,5C000410,-0724,1060,9862,019.0,045.0,0.171,769.3,01.15,0.508
2014-04-01 00:10:00,3870E-2,5C000410,-0724,1062,9901,019.0,045.0,0.171,769.3,01.15,0.508
2014-04-01 00:11:00,3829E-2,5C000410,-0724,1062,9945,019.0,045.0,0.171,769.3,01.15,0.508
2014-04-01 00:12:00,3797E-2,5C000400,-0724,1061,10003,019.0,045.0,0.171,769.3,01.15,0.508
2014-04-01 00:13:00,3828E-2,5C000410,-0724,1062,9940,019.0,045.0,0.171,769.3,01.15,0.508
2014-04-01 00:14:00,3804E-2,5C000410,-0724,1062,9854,019.0,045.0,0.171,769.3,01.15,0.508
2014-04-01 00:15:00,3824E-2,5C000410,-0724,1064,10064,019.0,045.0,0.171,769.3,01.15,0.508
2014-04-01 00:16:00,3828E-2,5C000410,-0724,1061,9826,019.0,045.0,0.171,769.3,01.15,0.508
2014-04-01 00:17:00,3821E-2,5C000410,-0724,1061,9915,019.0,045.0,0.171,769.3,01.15,0.508
2014-04-01 00:18:00,3812E-2,5C000410,-0724,1062,9843,019.0,045.0,0.171,769.3,01.15,0.508
2014-04-01 00:19:00,3859E-2,5C000410,-0724,1062,9952,019.1,045.0,0.171,769.3,01.15,0.508
2014-04-01 00:20:00,3805E-2,5C000410,-0724,1062,9975,019.0,045.0,0.171,769.3,01.15,0.508
2014-04-01 00:21:00,3805E-2,5C000410,-0724,1063,9903,019.1,045.0,0.171,769.3,01.15,0.508
2014-04-01 00:22:00,3844E-2,5C000410,-0724,1062,9768,019.1,045.0,0.171,769.3,01.15,0.508
2014-04-01 00:23:00,3838E-2,5C000400,-0724,1061,10040,019.1,045.0,0.171,769.3,01.15,0.508
2014-04-01 00:24:00,3804E-2,5C000410,-0724,1062,10021,019.1,045.0,0.171,769.3,01.15,0.508
2014-04-01 00:25:00,3814E-2,5C000410,-0724,1061,9953,019.1,045.0,0.171,769.3,01.15,0.508
2014-04-01 00:26:00,3876E-2,5C000410,-0724,1062,9885,019.1,045.0,0.171,769.2,01.15,0.508
2014-04-01 00:27:00,3821E-2,5C000410,-0724,1062,9896,019.1,045.0,0.171,769.2,01.15,0.508
2014-04-01 00:28:00,3794E-2,5C000400,-0724,1062,10015,019.1,045.0,0.171,769.2,01.15,0.508
2014-04-01 00:29:00,3822E-2,5C000410,-0724,1063,9826,019.1,045.0,0.171,769.2,01.15,0.508
2014-04-01 00:30:00,3827E-2,5C000410,-0724,1061,9861,019.1,045.0,0.171,769.3,01.15,0.508
2014-04-01 00:31:00,3834E-2,5C000410,-0724,1062,9775,019.1,045.0,0.171,769.2,01.15,0.508
2014-04-01 00:32:00,3840E-2,5C000410,-0724,1064,9950,019.1,045.0,0.171,769.2,01.15,0.508
2014-04-01 00:33:00,3816E-2,5C000410,-0724,1064,9914,019.2,045.0,0.171,769.2,01.15,0.508
2014-04-01 00:34:00,3763E-2,5C000410,-0724,1064,9957,019.1,045.0,0.171,769.1,01.15,0.508
2014-04-01 00:35:00,3814E-2,5C000410,-0724,1064,9768,019.2,045.0,0.171,769.1,01.15,0.508
2014-04-01 00:36:00,3841E-2,5C000410,-0724,1064,10027,019.1,045.0,0.171,769.1,01.15,0.508
2014-04-01 00:37:00,3792E-2,5C000410,-0724,1063,9795,019.2,045.0,0.171,769.1,01.15,0.508
2014-04-01 00:38:00,3806E-2,5C000410,-0724,1064,10026,019.2,045.0,0.171,769.1,01.15,0.508
2014-04-01 00:39:00,3851E-2,5C000410,-0724,1063,9966,019.2,045.0,0.170,769.1,01.15,0.508
2014-04-01 00:40:00,3826E-2,5C000400,-0724,1065,10000,019.2,045.0,0.171,769.2,01.15,0.508
2014-04-01 00:41:00,3807E-2,5C000410,-0724,1064,9725,019.2,045.0,0.170,769.2,01.15,0.508
2014-04-01 00:42:00,3790E-2,5C000410,-0724,1065,9974,019.2,045.0,0.170,769.2,01.15,0.508
2014-04-01 00:43:00,3828E-2,5C000410,-0724,1065,9900,019.2,045.0,0.170,769.2,01.15,0.508
2014-04-01 00:44:00,3804E-2,5C000410,-0724,1065,9875,019.2,045.0,0.170,769.2,01.15,0.508
2014-04-01 00:45:00,3780E-2,5C000410,-0724,1066,9934,019.2,045.0,0.170,769.2,01.15,0.508
2014-04-01 00:46:00,3805E-2,5C000410,-0724,1066,9823,019.2,045.0,0.170,769.2,01.15,0.508
2014-04-01 00:47:00,3855E-2,5C000410,-0724,1065,9964,019.2,045.0,0.170,769.2,01.15,0.508
2014-04-01 00:48:00,3822E-2,5C000410,-0724,1065,9826,019.2,045.0,0.170,769.2,01.15,0.508
2014-04-01 00:49:00,3837E-2,5C000410,-0724,1063,9942,019.3,045.0,0.170,769.2,01.15,0.508
2014-04-01 00:50:00,3819E-2,5C000400,-0724,1064,10001,019.3,045.0,0.170,769.2,01.15,0.508
2014-04-01 00:51:00,3848E-2,5C000410,-0724,1065,9798,019.3,045.0,0.170,769.2,01.15,0.508
2014-04-01 00:52:00,3842E-2,5C000410,-0724,1065,9922,019.3,045.0,0.170,769.2,01.15,0.508
2014-04-01 00:53:00,3778E-2,5C000410,-0724,1067,9829,019.3,045.0,0.170,769.2,01.15,0.508
2014-04-01 00:54:00,3832E-2,5C000400,-0724,1070,9914,019.3,045.0,0.170,769.2,01.15,0.508
2014-04-01 00:55:00,3870E-2,5C000410,-0724,1072,9693,019.3,045.0,0.170,769.1,01.15,0.508
2014-04-01 00:56:00,3862E-2,5C000410,-0724,1071,9683,019.3,045.0,0.170,769.1,01.15,0.508
2014-04-01 00:57:00,3813E-2,5C000410,-0724,1072,9795,019.3,045.0,0.170,769.0,01.15,0.508
2014-04-01 00:58:00,3833E-2,5C000410,-0724,1073,9831,019.3,045.0,0.170,768.9,01.15,0.508
2014-04-01 00:59:00,3811E-2,5C000410,-0724,1072,9850,019.3,045.0,0.170,768.8,01.15,0.508
2014-04-01 01:00:00,3890E-2,5C000410,-0724,1072,9748,019.3,045.0,0.170,769.3,01.15,0.508
2014-04-01 01:01:00,3834E-2,5C000410,-0724,1073,9890,019.3,045.0,0.170,769.2,01.15,0.508
2014-04-01 01:02:00,3807E-2,5C000410,-0724,1073,9717,019.3,045.0,0.170,769.3,01.15,0.508
2014-04-01 01:03:00,3806E-2,5C000410,-0724,1072,9957,019.3,045.0,0.170,769.3,01.15,0.508
2014-04-01 01:04:00,3844E-2,5C000410,-0724,1072,9858,019.4,045.0,0.170,769.3,01.15,0.508
2014-04-01 01:05:00,3793E-2,5C000410,-0724,1072,9836,019.4,045.0,0.170,769.3,01.15,0.508
2014-04-01 01:06:00,3806E-2,5C000410,-0724,1072,9909,019.4,045.0,0.170,769.3,01.15,0.508
2014-04-01 01:07:00,3796E-2,5C000410,-0724,1074,9923,019.4,045.0,0.170,769.3,01.15,0.508
2014-04-01 01:08:00,3869E-2,5C000410,-0724,1073,9801,019.4,045.0,0.170,769.3,01.15,0.508
2014-04-01 01:09:00,3800E-2,5C000410,-0724,1073,9843,019.4,045.0,0.170,769.3,01.15,0.508
2014-04-01 01:10:00,3836E-2,5C000410,-0724,1075,9676,019.4,045.0,0.170,769.3,01.15,0.508
2014-04-01 01:11:00,3860E-2,5C000410,-0724,1073,9869,019.4,045.0,0.170,769.3,01.15,0.508
2014-04-01 01:12:00,3845E-2,5C000410,-0724,1073,9842,019.5,045.0,0.170,769.3,01.15,0.508
2014-04-01 01:13:00,3873E-2,5C000410,-0724,1074,9778,019.5,045.0,0.170,769.2,01.15,0.508
2014-04-01 01:14:00,3877E-2,5C000410,-0724,1072,9644,019.5,045.0,0.170,769.2,01.15,0.508
2014-04-01 01:15:00,3838E-2,5C000410,-0724,1072,9692,019.5,045.0,0.170,769.2,01.15,0.508
2014-04-01 01:16:00,3811E-2,5C000410,-0724,1077,9769,019.5,045.0,0.170,769.2,01.15,0.508
2014-04-01 01:17:00,3780E-2,5C000410,-0724,1078,9661,019.4,045.0,0.170,769.2,01.15,0.508
2014-04-01 01:18:00,3752E-2,5C000410,-0724,1077,9794,019.5,045.0,0.170,769.2,01.15,0.508
2014-04-01 01:19:00,3803E-2,5C000410,-0724,1078,9769,019.5,045.0,0.170,769.2,01.15,0.508
2014-04-01 01:20:00,3807E-2,5C000410,-0724,1076,9795,019.5,045.0,0.170,769.2,01.15,0.508
2014-04-01 01:21:00,3792E-2,5C000410,-0724,1076,9737,019.5,045.0,0.170,769.2,01.15,0.508
2014-04-01 01:22:00,3782E-2,5C000410,-0724,1076,9849,019.5,045.0,0.170,769.2,01.15,0.508
2014-04-01 01:23:00,3774E-2,5C000410,-0724,1077,9693,019.5,045.0,0.170,769.2,01.15,0.508
2014-04-01 01:24:00,3844E-2,5C000410,-0724,1076,9923,019.5,045.0,0.170,769.2,01.15,0.508
2014-04-01 01:25:00,3814E-2,5C000410,-0724,1079,9750,019.6,045.0,0.170,769.2,01.15,0.508
2014-04-01 01:26:00,3776E-2,5C000410,-0724,1078,9631,019.5,045.0,0.170,769.2,01.15,0.508
2014-04-01 01:27:00,3790E-2,5C000410,-0724,1077,9629,019.6,045.0,0.170,769.2,01.15,0.508
2014-04-01 01:28:00,3775E-2,5C000410,-0724,1077,9727,019.6,045.0,0.170,769.2,01.15,0.508
2014-04-01 01:29:00,3786E-2,5C000410,-0724,1077,9801,019.6,045.0,0.170,769.1,01.15,0.508
2014-04-01 01:30:00,3802E-2,5C000410,-0724,1075,9853,019.6,045.0,0.170,769.1,01.15,0.508
2014-04-01 01:31:00,3797E-2,5C000410,-0724,1076,9890,019.6,045.0,0.170,769.1,01.15,0.508
2014-04-01 01:32:00,3827E-2,5C000410,-0724,1078,9798,019.6,045.0,0.169,769.1,01.15,0.508
2014-04-01 01:33:00,3803E-2,5C000410,-0724,1077,9819,019.6,045.0,0.170,769.1,01.15,0.508
2014-04-01 01:34:00,3814E-2,5C000410,-0724,1077,9859,019.7,045.0,0.169,769.1,01.15,0.508
2014-04-01 01:35:00,3790E-2,5C000410,-0724,1076,9870,019.6,045.0,0.169,769.1,01.15,0.508
2014-04-01 01:36:00,3813E-2,5C000410,-0724,1076,9896,019.7,045.0,0.169,769.1,01.15,0.508
2014-04-01 01:37:00,3768E-2,5C000410,-0724,1076,9742,019.7,045.0,0.169,769.1,01.15,0.508
2014-04-01 01:38:00,3781E-2,5C000410,-0724,1077,9819,019.7,045.0,0.169,769.1,01.15,0.508
2014-04-01 01:39:00,3795E-2,5C000410,-0724,1077,9883,019.7,045.0,0.169,769.1,01.15,0.508
2014-04-01 01:40:00,3809E-2,5C000410,-0724,1077,9660,019.7,045.0,0.169,769.1,01.15,0.508
2014-04-01 01:41:00,3847E-2,5C000410,-0724,1076,9711,019.7,045.0,0.169,769.1,01.15,0.508
2014-04-01 01:42:00,3832E-2,5C000410,-0724,1075,9805,019.7,045.0,0.169,769.1,01.15,0.508
2014-04-01 01:43:00,3837E-2,5C000410,-0724,1076,9861,019.7,045.0,0.169,769.1,01.15,0.508
2014-04-01 01:44:00,3853E-2,5C000410,-0724,1078,9842,019.7,045.0,0.169,769.1,01.15,0.508
2014-04-01 01:45:00,3846E-2,5C000410,-0724,1077,9752,019.7,045.0,0.169,769.1,01.15,0.508
2014-04-01 01:46:00,3832E-2,5C000410,-0724,1076,9736,019.7,045.0,0.169,769.1,01.15,0.508
2014-04-01 01:47:00,3836E-2,5C000410,-0724,1075,9728,019.7,045.0,0.169,769.1,01.15,0.508
2014-04-01 01:48:00,3839E-2,5C000410,-0724,1076,9667,019.7,045.0,0.169,769.1,01.15,0.508
2014-04-01 01:49:00,3825E-2,5C000410,-0724,1075,9868,019.8,045.0,0.169,769.1,01.15,0.508
2014-04-01 01:50:00,3792E-2,5C000410,-0724,1074,9791,019.8,045.0,0.169,769.1,01.15,0.508
2014-04-01 01:51:00,3739E-2,5C000410,-0724,1074,9681,019.8,045.0,0.169,769.1,01.15,0.508
2014-04-01 01:52:00,3829E-2,5C000410,-0724,1075,9626,019.8,045.0,0.169,769.1,01.15,0.508
2014-04-01 01:53:00,3779E-2,5C000410,-0724,1076,9773,019.8,045.0,0.169,769.1,01.15,0.508
2014-04-01 01:54:00,3796E-2,5C000410,-0724,1076,9931,019.8,045.0,0.169,769.1,01.15,0.508
2014-04-01 01:55:00,3804E-2,5C000410,-0724,1075,9883,019.8,045.0,0.169,769.1,01.15,0.508
2014-04-01 01:56:00,3781E-2,5C000410,-0724,1076,9884,019.8,045.0,0.169,769.1,01.15,0.508
2014-04-01 01:57:00,3770E-2,5C000410,-0724,1076,9777,019.8,045.0,0.169,769.1,01.15,0.508
2014-04-01 01:58:00,3776E-2,5C000410,-0724,1076,9834,019.8,045.0,0.169,769.1,01.15,0.508
2014-04-01 01:59:00,3763E-2,5C000410,-0724,1075,9753,019.8,045.0,0.169,769.1,01.15,0.508
2014-04-01 02:00:00,3796E-2,5C000410,-0724,1076,9791,019.8,045.0,0.169,769.1,01.15,0.508
2014-04-01 02:01:00,3777E-2,5C000410,-0724,1076,9740,019.9,045.0,0.169,769.1,01.15,0.508
2014-04-01 02:02:00,3810E-2,5C000410,-0724,1077,9887,019.8,045.0,0.169,769.1,01.15,0.508
2014-04-01 02:03:00,3775E-2,5C000410,-0724,1076,9759,019.9,045.0,0.169,769.1,01.15,0.508
2014-04-01 02:04:00,3769E-2,5C000410,-0724,1076,9871,019.9,045.0,0.169,769.1,01.15,0.508
2014-04-01 02:05:00,3756E-2,5C000410,-0724,1075,9832,019.9,045.0,0.169,769.1,01.15,0.508
2014-04-01 02:06:00,3794E-2,5C000410,-0724,1075,9806,019.9,045.0,0.169,769.1,01.15,0.508
2014-04-01 02:07:00,3765E-2,5C000410,-0724,1076,9903,019.9,045.0,0.169,769.1,01.15,0.508
2014-04-01 02:08:00,3790E-2,5C000410,-0724,1075,9700,019.9,045.0,0.169,769.1,01.15,0.508
2014-04-01 02:09:00,3768E-2,5C000410,-0724,1077,9815,019.9,045.0,0.169,769.1,01.15,0.508
2014-04-01 02:10:00,3756E-2,5C000410,-0724,1077,9764,019.9,045.0,0.169,769.1,01.15,0.508
2014-04-01 02:11:00,3820E-2,5C000410,-0724,1077,9868,019.9,045.0,0.169,769.1,01.15,0.508
2014-04-01 02:12:00,3827E-2,5C000410,-0724,1077,9725,019.9,045.0,0.169,769.1,01.15,0.508
2014-04-01 02:13:00,3786E-2,5C000410,-0724,1076,9811,019.9,045.0,0.169,769.1,01.15,0.508
2014-04-01 02:14:00,3782E-2,5C000410,-0724,1076,9670,019.9,045.0,0.169,769.1,01.15,0.508
2014-04-01 02:15:00,3810E-2,5C000410,-0724,1077,9810,019.9,045.0,0.169,769.1,01.15,0.508
2014-04-01 02:16:00,3819E-2,5C000410,-0724,1076,9553,019.9,045.0,0.168,769.1,01.15,0.508
2014-04-01 02:17:00,3795E-2,5C000410,-0724,1076,9851,020.0,045.0,0.169,769.1,01.15,0.508
2014-04-01 02:18:00,3765E-2,5C000410,-0724,1071,9891,020.0,045.0,0.169,769.1,01.15,0.508
2014-04-01 02:19:00,3738E-2,5C000410,-0724,1071,9767,019.9,045.0,0.169,769.1,01.15,0.508
2014-04-01 02:20:00,3733E-2,5C000410,-0724,1072,9694,020.0,045.0,0.169,769.1,01.15,0.508
2014-04-01 02:21:00,3735E-2,5C000410,-0724,1071,9825,020.0,045.0,0.168,769.1,01.15,0.508
2014-04-01 02:22:00,3712E-2,5C000410,-0724,1071,9828,020.0,045.0,0.168,769.1,01.15,0.508
2014-04-01 02:23:00,3715E-2,5C000410,-0724,1071,9889,020.0,045.0,0.168,769.1,01.15,0.508
2014-04-01 02:24:00,3726E-2,5C000410,-0724,1072,9953,020.0,045.0,0.168,769.1,01.15,0.508
2014-04-01 02:25:00,3731E-2,5C000410,-0724,1069,9752,020.0,045.0,0.168,769.1,01.15,0.508
2014-04-01 02:26:00,3715E-2,5C000410,-0724,1069,9863,020.0,045.0,0.168,769.1,01.15,0.508
2014-04-01 02:27:00,3732E-2,5C000410,-0724,1069,9886,020.0,045.0,0.168,769.1,01.15,0.508
2014-04-01 02:28:00,3729E-2,5C000410,-0724,1070,9876,020.0,045.0,0.168,769.1,01.15,0.508
2014-04-01 02:29:00,3676E-2,5C000410,-0724,1071,9932,020.0,045.0,0.168,769.1,01.15,0.508
2014-04-01 02:30:00,3742E-2,5C000410,-0724,1071,9903,020.0,045.0,0.168,769.1,01.15,0.508
2014-04-01 02:31:00,3755E-2,5C000410,-0724,1070,9528,020.0,045.0,0.168,769.1,01.15,0.508
2014-04-01 02:32:00,3683E-2,5C000410,-0724,1069,9706,020.0,045.1,0.168,769.1,01.15,0.508
2014-04-01 02:33:00,3710E-2,5C000410,-0724,1070,9837,020.0,045.0,0.168,769.1,01.15,0.508
2014-04-01 02:34:00,3697E-2,5C000410,-0724,1070,9927,020.1,045.0,0.168,769.1,01.15,0.508
2014-04-01 02:35:00,3766E-2,5C000410,-0724,1069,9804,020.0,045.0,0.168,769.1,01.15,0.508
2014-04-01 02:36:00,3707E-2,5C000410,-0724,1069,9895,020.1,045.0,0.168,769.1,01.15,0.508
2014-04-01 02:37:00,3727E-2,5C000410,-0724,1070,9761,020.1,045.0,0.168,769.1,01.15,0.508
2014-04-01 02:38:00,3749E-2,5C000410,-0724,1069,9832,020.1,045.0,0.168,769.1,01.15,0.508
2014-04-01 02:39:00,3714E-2,5C000410,-0724,1070,9896,020.1,045.0,0.168,769.1,01.15,0.508
2014-04-01 02:40:00,3697E-2,5C000410,-0724,1069,9911,020.1,045.0,0.168,769.1,01.15,0.508
2014-04-01 02:41:00,3672E-2,5C000410,-0724,1070,9727,020.1,045.0,0.168,769.1,01.15,0.508
2014-04-01 02:42:00,3698E-2,5C000410,-0724,1068,9778,020.1,045.0,0.168,769.1,01.15,0.508
2014-04-01 02:43:00,3743E-2,5C000410,-0724,1070,9994,020.2,045.0,0.168,769.1,01.15,0.508
2014-04-01 02:44:00,3745E-2,5C000410,-0724,1069,9917,020.1,045.0,0.168,769.1,01.15,0.508
2014-04-01 02:45:00,3729E-2,5C000410,-0724,1070,9892,020.2,045.1,0.168,769.0,01.15,0.508
2014-04-01 02:46:00,3712E-2,5C000410,-0724,1070,9838,020.2,045.0,0.168,769.0,01.15,0.508
2014-04-01 02:47:00,3733E-2,5C000410,-0724,1069,9834,020.2,045.0,0.168,769.0,01.15,0.508
2014-04-01 02:48:00,3801E-2,5C000410,-0724,1068,9804,020.2,045.0,0.168,769.0,01.15,0.508
2014-04-01 02:49:00,3783E-2,5C000410,-0724,1070,9871,020.2,045.0,0.168,769.0,01.15,0.508
2014-04-01 02:50:00,3696E-2,5C000410,-0724,1070,9885,020.2,045.0,0.168,769.0,01.15,0.508
2014-04-01 02:51:00,3775E-2,5C000410,-0724,1069,9798,020.2,045.0,0.168,769.1,01.15,0.508
2014-04-01 02:52:00,3704E-2,5C000410,-0724,1070,9883,020.2,045.0,0.168,769.0,01.15,0.508
2014-04-01 02:53:00,3676E-2,5C000410,-0724,1071,9753,020.2,045.1,0.168,769.0,01.15,0.508
2014-04-01 02:54:00,3703E-2,5C000410,-0724,1070,9932,020.2,045.0,0.168,769.1,01.15,0.508
2014-04-01 02:55:00,3773E-2,5C000410,-0724,1070,9755,020.2,045.0,0.168,769.1,01.15,0.508
2014-04-01 02:56:00,3724E-2,5C000410,-0724,1071,9957,020.2,045.0,0.168,769.1,01.15,0.508
2014-04-01 02:57:00,3752E-2,5C000410,-0724,1070,10019,020.2,045.1,0.168,769.1,01.15,0.508
2014-04-01 02:58:00,3780E-2,5C000410,-0724,1071,9909,020.3,045.0,0.168,769.1,01.15,0.508
2014-04-01 02:59:00,3744E-2,5C000410,-0724,1070,9858,020.3,045.0,0.168,769.1,01.15,0.508
2014-04-01 03:00:00,3719E-2,5C000410,-0724,1070,9722,020.3,045.0,0.168,769.1,01.15,0.508
2014-04-01 03:01:00,3817E-2,5C000410,-0724,1070,9810,020.3,045.0,0.168,769.1,01.15,0.508
2014-04-01 03:02:00,3768E-2,5C000410,-0724,1069,9782,020.3,045.0,0.168,769.1,01.15,0.508
2014-04-01 03:03:00,3779E-2,5C000410,-0724,1070,9701,020.3,045.0,0.168,769.0,01.15,0.508
2014-04-01 03:04:00,3752E-2,5C000410,-0724,1069,9906,020.3,045.0,0.168,769.0,01.15,0.508
2014-04-01 03:05:00,3748E-2,5C000410,-0724,1070,9738,020.3,045.0,0.168,769.0,01.15,0.508
2014-04-01 03:06:00,3812E-2,5C000410,-0724,1069,9825,020.3,045.0,0.167,769.0,01.15,0.508
2014-04-01 03:07:00,3730E-2,5C000410,-0724,1069,9743,020.3,045.0,0.168,769.0,01.15,0.508
2014-04-01 03:08:00,3701E-2,5C000410,-0724,1070,9894,020.3,045.0,0.168,769.0,01.15,0.508
2014-04-01 03:09:00,3765E-2,5C000410,-0724,1070,9828,020.3,045.0,0.168,769.0,01.15,0.508
2014-04-01 03:10:00,3818E-2,5C000410,-0724,1069,9751,020.3,045.0,0.168,769.0,01.15,0.508
2014-04-01 03:11:00,3730E-2,5C000410,-0724,1070,9926,020.3,045.0,0.168,769.0,01.15,0.508
2014-04-01 03:12:00,3775E-2,5C000410,-0724,1069,9863,020.3,045.1,0.167,769.0,01.15,0.508
2014-04-01 03:13:00,3760E-2,5C000410,-0724,1069,9798,020.4,045.0,0.168,768.9,01.15,0.508
2014-04-01 03:14:00,3770E-2,5C000410,-0724,1069,9800,020.4,045.0,0.168,768.9,01.15,0.508
2014-04-01 03:15:00,3751E-2,5C000410,-0724,1071,9907,020.4,045.0,0.168,768.9,01.15,0.508
2014-04-01 03:16:00,3767E-2,5C000410,-0724,1071,9904,020.4,045.0,0.167,768.9,01.15,0.508
2014-04-01 03:17:00,3800E-2,5C000410,-0724,1071,9805,020.4,045.1,0.167,768.9,01.15,0.508
2014-04-01 03:18:00,3783E-2,5C000410,-0724,1071,9915,020.4,045.0,0.167,768.9,01.15,0.508
2014-04-01 03:19:00,3764E-2,5C000410,-0724,1071,9866,020.4,045.0,0.167,768.8,01.15,0.508
2014-04-01 03:20:00,3845E-2,5C000410,-0724,1069,9731,020.4,045.0,0.167,768.8,01.15,0.508
2014-04-01 03:21:00,3758E-2,5C000410,-0724,1068,9946,020.4,045.0,0.167,768.8,01.15,0.508
2014-04-01 03:22:00,3774E-2,5C000410,-0724,1070,9876,020.4,045.1,0.167,768.8,01.15,0.508
2014-04-01 03:23:00,3794E-2,5C000410,-0724,1070,9833,020.4,045.1,0.167,768.8,01.15,0.508
2014-04-01 03:24:00,3804E-2,5C000410,-0724,1070,9927,020.4,045.1,0.167,768.8,01.15,0.508
2014-04-01 03:25:00,3823E-2,5C000410,-0724,1070,9813,020.4,045.0,0.167,768.8,01.15,0.508
2014-04-01 03:26:00,3805E-2,5C000400,-0724,1070,10009,020.4,045.0,0.168,768.8,01.15,0.508
2014-04-01 03:27:00,3783E-2,5C000410,-0724,1070,9897,020.4,045.1,0.167,768.8,01.15,0.508
2014-04-01 03:28:00,3817E-2,5C000410,-0724,1071,9685,020.4,045.0,0.167,768.8,01.15,0.508
2014-04-01 03:29:00,3771E-2,5C000410,-0724,1071,9916,020.4,045.0,0.167,768.8,01.15,0.508
2014-04-01 03:30:00,3740E-2,5C000410,-0724,1070,9749,020.5,045.1,0.167,768.8,01.15,0.508
2014-04-01 03:31:00,3826E-2,5C000410,-0724,1070,9667,020.4,045.1,0.167,768.8,01.15,0.508
2014-04-01 03:32:00,3776E-2,5C000410,-0724,1070,9829,020.5,045.0,0.167,768.8,01.15,0.508
2014-04-01 03:33:00,3813E-2,5C000410,-0724,1072,9790,020.5,045.0,0.167,768.8,01.15,0.508
2014-04-01 03:34:00,3834E-2,5C000410,-0724,1072,9679,020.5,045.0,0.167,768.8,01.15,0.508
2014-04-01 03:35:00,3800E-2,5C000410,-0724,1071,9801,020.5,045.0,0.167,768.8,01.15,0.508
2014-04-01 03:36:00,3861E-2,5C000410,-0724,1070,9743,020.5,045.1,0.167,768.8,01.15,0.508
2014-04-01 03:37:00,3806E-2,5C000410,-0724,1071,9906,020.5,045.0,0.167,768.8,01.15,0.508
2014-04-01 03:38:00,3800E-2,5C000410,-0724,1070,10027,020.5,045.0,0.167,768.8,01.15,0.508
2014-04-01 03:39:00,3816E-2,5C000410,-0724,1071,9788,020.5,045.0,0.167,768.8,01.15,0.508
2014-04-01 03:40:00,3738E-2,5C000410,-0724,1071,9832,020.6,045.0,0.167,768.8,01.15,0.508
2014-04-01 03:41:00,3839E-2,5C000410,-0724,1071,9876,020.6,045.1,0.167,768.8,01.15,0.508
2014-04-01 03:42:00,3828E-2,5C000410,-0724,1069,9731,020.6,045.0,0.167,768.8,01.15,0.508
2014-04-01 03:43:00,3824E-2,5C000410,-0724,1071,9766,020.6,045.0,0.167,768.8,01.15,0.508
2014-04-01 03:44:00,3800E-2,5C000410,-0724,1071,9765,020.6,045.0,0.167,768.8,01.15,0.508
2014-04-01 03:45:00,3771E-2,5C000410,-0724,1071,9903,020.6,045.0,0.167,768.8,01.15,0.508
2014-04-01 03:46:00,3814E-2,5C000410,-0724,1073,9984,020.6,045.1,0.167,768.8,01.15,0.508
2014-04-01 03:47:00,3817E-2,5C000410,-0724,1072,9790,020.6,045.1,0.167,768.8,01.15,0.508
2014-04-01 03:48:00,3805E-2,5C000410,-0724,1072,9921,020.6,045.0,0.167,768.8,01.15,0.508
2014-04-01 03:49:00,3821E-2,5C000410,-0724,1072,9912,020.6,045.0,0.167,768.8,01.15,0.508
2014-04-01 03:50:00,3782E-2,5C000410,-0724,1072,9771,020.6,045.0,0.167,768.8,01.15,0.508
2014-04-01 03:51:00,3774E-2,5C000410,-0724,1071,9884,020.6,045.0,0.167,768.8,01.15,0.508
2014-04-01 03:52:00,3874E-2,5C000410,-0724,1071,9739,020.6,045.0,0.167,768.8,01.15,0.508
2014-04-01 03:53:00,3810E-2,5C000410,-0724,1071,9843,020.7,045.0,0.167,768.8,01.15,0.508
2014-04-01 03:54:00,3804E-2,5C000410,-0724,1070,9836,020.6,045.0,0.167,768.8,01.15,0.508
2014-04-01 03:55:00,3766E-2,5C000410,-0724,1071,9862,020.7,045.0,0.167,768.8,01.15,0.508
2014-04-01 03:56:00,3805E-2,5C000410,-0724,1070,9836,020.7,045.1,0.167,768.8,01.15,0.508
2014-04-01 03:57:00,3795E-2,5C000410,-0724,1073,9900,020.7,045.0,0.167,768.8,01.15,0.508
2014-04-01 03:58:00,3848E-2,5C000410,-0724,1072,9605,020.7,045.1,0.167,768.8,01.15,0.508
2014-04-01 03:59:00,3817E-2,5C000410,-0724,1072,9937,020.7,045.1,0.167,768.8,01.15,0.508
2014-04-01 04:00:00,3793E-2,5C000410,-0724,1071,9823,020.7,045.0,0.167,768.8,01.15,0.508
2014-04-01 04:01:00,3778E-2,5C000410,-0724,1073,9765,020.7,045.0,0.167,768.8,01.15,0.508
2014-04-01 04:02:00,3809E-2,5C000410,-0724,1073,9813,020.7,045.1,0.167,768.8,01.15,0.508
2014-04-01 04:03:00,3794E-2,5C000410,-0724,1072,9779,020.7,045.1,0.167,768.8,01.15,0.508
2014-04-01 04:04:00,3836E-2,5C000410,-0724,1073,9687,020.8,045.0,0.167,768.8,01.15,0.508
2014-04-01 04:05:00,3873E-2,5C000410,-0724,1072,9865,020.8,045.0,0.167,768.8,01.15,0.508
2014-04-01 04:06:00,3801E-2,5C000410,-0724,1072,9797,020.7,045.0,0.166,768.8,01.15,0.508
2014-04-01 04:07:00,3817E-2,5C000410,-0724,1073,9852,020.8,045.0,0.166,768.8,01.15,0.508
2014-04-01 04:08:00,3828E-2,5C000410,-0724,1072,9671,020.8,045.0,0.166,768.8,01.15,0.508
2014-04-01 04:09:00,3869E-2,5C000410,-0724,1072,9642,020.8,045.0,0.166,768.8,01.15,0.508
2014-04-01 04:10:00,3837E-2,5C000410,-0724,1074,9891,020.8,045.0,0.166,768.8,01.15,0.508
2014-04-01 04:11:00,3838E-2,5C000410,-0724,1073,9796,020.8,045.0,0.166,768.8,01.15,0.508
2014-04-01 04:12:00,3816E-2,5C000410,-0724,1073,9848,020.8,045.0,0.166,768.8,01.15,0.508
2014-04-01 04:13:00,3809E-2,5C000410,-0724,1073,9893,020.8,045.1,0.166,768.8,01.15,0.508
2014-04-01 04:14:00,3838E-2,5C000410,-0724,1072,9829,020.8,045.1,0.166,768.8,01.15,0.508
2014-04-01 04:15:00,3842E-2,5C000410,-0724,1073,9884,020.8,045.0,0.166,768.8,01.15,0.508
2014-04-01 04:16:00,3824E-2,5C000410,-0724,1073,9803,020.8,045.0,0.166,768.8,01.15,0.508
2014-04-01 04:17:00,3830E-2,5C000410,-0724,1074,9758,020.8,045.1,0.166,768.8,01.15,0.508
2014-04-01 04:18:00,3859E-2,5C000410,-0724,1074,9704,020.8,045.1,0.166,768.8,01.15,0.508
2014-04-01 04:19:00,3872E-2,5C000410,-0724,1072,9845,020.9,045.0,0.166,768.8,01.15,0.508
2014-04-01 04:20:00,3777E-2,5C000410,-0724,1071,9966,020.9,045.0,0.166,768.8,01.15,0.508
2014-04-01 04:21:00,3823E-2,5C000410,-0724,1066,9976,020.9,045.1,0.166,768.8,01.15,0.508
2014-04-01 04:22:00,3777E-2,5C000410,-0724,1067,9797,020.9,045.1,0.166,768.8,01.15,0.508
2014-04-01 04:23:00,3787E-2,5C000410,-0724,1068,9811,020.9,045.0,0.166,768.8,01.15,0.508